This is the latest recevied weather packets stored in our database for station/object KD8JAM. If no packets are shown the sender has not sent any weather packets the latest 10 day(s).
| Time | Temp. | Humidity | Pressure | Rain* | Wind** | Luminosity | Snow |
|---|---|---|---|---|---|---|---|
| 1777597957 | 0° C | 95% | 1018.2 hPa | 0 mm | - | 0 W/m² | - |
| 1777597656 | 0° C | 95% | 1018 hPa | 0 mm | - | 0 W/m² | - |
| 1777597352 | 0.56° C | 95% | 1018 hPa | 0 mm | - | 2 W/m² | - |
| 1777597047 | 0.56° C | 94% | 1018.1 hPa | 0 mm | - | 4 W/m² | - |
| 1777596744 | 0.56° C | 94% | 1017.9 hPa | 0 mm | - | 6 W/m² | - |
| 1777596440 | 0.56° C | 93% | 1017.9 hPa | 0 mm | - | 8 W/m² | - |
| 1777596138 | 0.56° C | 92% | 1017.8 hPa | 0 mm | - | 11 W/m² | - |
| 1777595834 | 0.56° C | 92% | 1018 hPa | 0 mm | - | 14 W/m² | - |
| 1777595529 | 0.56° C | 92% | 1017.9 hPa | 0 mm | - | 16 W/m² | - |
| 1777595226 | 0.56° C | 91% | 1017.8 hPa | 0 mm | - | 21 W/m² | - |
| 1777594922 | 0.56° C | 91% | 1017.8 hPa | 0 mm | - | 26 W/m² | - |
| 1777594618 | 0.56° C | 90% | 1018.1 hPa | 0 mm | - | 32 W/m² | - |
| 1777594315 | 1.11° C | 89% | 1018.1 hPa | 0 mm | - | 39 W/m² | - |
| 1777594011 | 1.11° C | 89% | 1017.9 hPa | 0 mm | - | 46 W/m² | - |
| 1777593707 | 1.11° C | 87% | 1018 hPa | 0 mm | - | 49 W/m² | - |
| 1777593403 | 1.11° C | 87% | 1017.9 hPa | 0 mm | - | 53 W/m² | - |
| 1777593102 | 1.67° C | 86% | 1017.8 hPa | 0 mm | - | 61 W/m² | - |
| 1777592801 | 1.67° C | 86% | 1018 hPa | 0 mm | - | 71 W/m² | - |
| 1777592498 | 1.67° C | 86% | 1018 hPa | 0 mm | - | 81 W/m² | - |
| 1777592193 | 1.67° C | 85% | 1017.8 hPa | 0 mm | - | 92 W/m² | - |
| 1777591890 | 1.67° C | 87% | 1018.1 hPa | 0 mm | - | 103 W/m² | - |
| 1777591586 | 1.67° C | 87% | 1017.9 hPa | 0 mm | - | 103 W/m² | - |
| 1777591282 | 1.67° C | 86% | 1018.1 hPa | 0 mm | - | 109 W/m² | - |
| 1777590978 | 1.67° C | 86% | 1017.9 hPa | 0 mm | - | 115 W/m² | - |
| 1777590674 | 1.67° C | 86% | 1018 hPa | 0 mm | - | 126 W/m² | - |
* Rain latest hour (hover to see other rain measurements)
** Current wind speed in m/s (hover to see current wind gust speed)